Time,TemperatureF,DewpointF,PressureIn,WindDirection,WindDirectionDegrees,WindSpeedMPH,WindSpeedGustMPH,Humidity,HourlyPrecipIn,Conditions,Clouds,dailyrainin,SoftwareType,DateUTC
2013-03-17 00:03:00,40.0,32.0,-100.00,East,80,1.0,3.0,72,0.00,,,-99.99,,2013-03-17 04:03:00,
2013-03-17 00:13:00,40.0,31.0,-100.00,ENE,70,3.0,7.0,72,0.00,,,-99.99,,2013-03-17 04:13:00,
2013-03-17 00:23:00,40.0,31.0,-100.00,ENE,65,2.0,6.0,72,0.00,,,-99.99,,2013-03-17 04:23:00,
2013-03-17 00:33:00,40.0,31.0,-100.00,ESE,120,2.0,5.0,72,0.00,,,-99.99,,2013-03-17 04:33:00,
2013-03-17 00:43:00,40.0,32.0,-100.00,East,85,2.0,6.0,73,0.00,,,-99.99,,2013-03-17 04:43:00,
2013-03-17 00:53:00,39.0,31.0,-100.00,East,90,2.0,6.0,72,0.00,,,-99.99,,2013-03-17 04:53:00,
2013-03-17 01:03:00,39.0,31.0,-100.00,East,85,1.0,6.0,73,0.00,,,-99.99,,2013-03-17 05:03:00,
2013-03-17 01:12:00,39.0,31.0,-100.00,ESE,105,2.0,6.0,73,0.00,,,-99.99,,2013-03-17 05:12:00,
2013-03-17 01:22:00,39.0,31.0,-100.00,SE,125,2.0,7.0,72,0.00,,,-99.99,,2013-03-17 05:22:00,
2013-03-17 01:32:00,39.0,31.0,-100.00,East,100,4.0,7.0,73,0.00,,,-99.99,,2013-03-17 05:32:00,
2013-03-17 01:42:00,39.0,31.0,-100.00,ESE,120,1.0,5.0,73,0.00,,,-99.99,,2013-03-17 05:42:00,
2013-03-17 01:52:00,39.0,31.0,-100.00,NE,50,3.0,6.0,72,0.00,,,-99.99,,2013-03-17 05:52:00,
2013-03-17 02:02:00,39.0,31.0,-100.00,ESE,110,2.0,5.0,72,0.00,,,-99.99,,2013-03-17 06:02:00,
2013-03-17 02:12:00,39.0,31.0,-100.00,East,85,2.0,4.0,72,0.00,,,-99.99,,2013-03-17 06:12:00,
2013-03-17 02:22:00,39.0,31.0,-100.00,ENE,65,2.0,7.0,73,0.00,,,-99.99,,2013-03-17 06:22:00,
2013-03-17 02:32:00,38.0,31.0,-100.00,SE,130,4.0,6.0,73,0.00,,,-99.99,,2013-03-17 06:32:00,
2013-03-17 02:42:00,38.0,31.0,-100.00,East,80,2.0,7.0,74,0.00,,,-99.99,,2013-03-17 06:42:00,
2013-03-17 02:52:00,38.0,31.0,-100.00,ESE,110,2.0,6.0,74,0.00,,,-99.99,,2013-03-17 06:52:00,
2013-03-17 03:02:00,38.0,31.0,-100.00,NE,55,2.0,6.0,75,0.00,,,-99.99,,2013-03-17 07:02:00,
2013-03-17 03:12:00,38.0,31.0,-100.00,SE,140,4.0,6.0,74,0.00,,,-99.99,,2013-03-17 07:12:00,
2013-03-17 03:22:00,38.0,31.0,-100.00,East,95,1.0,8.0,74,0.00,,,-99.99,,2013-03-17 07:22:00,
2013-03-17 03:32:00,38.0,31.0,-100.00,East,80,2.0,7.0,74,0.00,,,-99.99,,2013-03-17 07:32:00,
2013-03-17 03:42:00,38.0,30.0,-100.00,East,95,6.0,9.0,74,0.00,,,-99.99,,2013-03-17 07:42:00,
2013-03-17 03:52:00,38.0,31.0,-100.00,East,80,4.0,9.0,75,0.00,,,-99.99,,2013-03-17 07:52:00,
2013-03-17 04:03:00,38.0,31.0,-100.00,East,100,4.0,9.0,75,0.00,,,-99.99,,2013-03-17 08:03:00,
2013-03-17 04:13:00,37.0,30.0,-100.00,NE,55,4.0,12.0,75,0.00,,,-99.99,,2013-03-17 08:13:00,
2013-03-17 04:22:00,37.0,30.0,-100.00,ENE,70,4.0,12.0,74,0.00,,,-99.99,,2013-03-17 08:22:00,
2013-03-17 04:33:00,37.0,29.0,-100.00,East,90,7.0,12.0,72,0.00,,,-99.99,,2013-03-17 08:33:00,
2013-03-17 04:42:00,37.0,29.0,-100.00,ESE,105,3.0,11.0,73,0.00,,,-99.99,,2013-03-17 08:42:00,
2013-03-17 04:52:00,37.0,29.0,-100.00,SE,140,1.0,8.0,74,0.00,,,-99.99,,2013-03-17 08:52:00,
2013-03-17 05:03:00,37.0,29.0,-100.00,ENE,70,1.0,6.0,73,0.00,,,-99.99,,2013-03-17 09:03:00,
2013-03-17 05:12:00,37.0,29.0,-100.00,East,80,1.0,7.0,73,0.00,,,-99.99,,2013-03-17 09:12:00,
2013-03-17 05:22:00,37.0,29.0,-100.00,East,90,4.0,8.0,72,0.00,,,-99.99,,2013-03-17 09:22:00,
2013-03-17 05:32:00,37.0,29.0,-100.00,ESE,105,1.0,7.0,72,0.00,,,-99.99,,2013-03-17 09:32:00,
2013-03-17 05:43:00,37.0,29.0,-100.00,ESE,105,1.0,8.0,72,0.00,,,-99.99,,2013-03-17 09:43:00,
2013-03-17 05:53:00,37.0,29.0,-100.00,East,100,4.0,6.0,72,0.00,,,-99.99,,2013-03-17 09:53:00,
2013-03-17 06:03:00,37.0,28.0,-100.00,East,85,4.0,6.0,72,0.00,,,-99.99,,2013-03-17 10:03:00,
2013-03-17 06:13:00,37.0,28.0,-100.00,SE,135,4.0,7.0,72,0.00,,,-99.99,,2013-03-17 10:13:00,
2013-03-17 06:23:00,37.0,28.0,-100.00,SE,135,4.0,7.0,72,0.00,,,-99.99,,2013-03-17 10:23:00,
2013-03-17 06:33:00,36.0,28.0,-100.00,SE,135,6.0,9.0,72,0.00,,,-99.99,,2013-03-17 10:33:00,
2013-03-17 06:42:00,36.0,28.0,-100.00,SE,130,2.0,8.0,72,0.00,,,-99.99,,2013-03-17 10:42:00,
2013-03-17 06:52:00,36.0,28.0,-100.00,SE,140,4.0,6.0,72,0.00,,,-99.99,,2013-03-17 10:52:00,
2013-03-17 07:03:00,36.0,28.0,-100.00,East,100,5.0,7.0,72,0.00,,,-99.99,,2013-03-17 11:03:00,
2013-03-17 07:12:00,36.0,28.0,-100.00,SE,135,4.0,12.0,73,0.00,,,-99.99,,2013-03-17 11:12:00,
2013-03-17 07:22:00,36.0,28.0,-100.00,SE,135,4.0,9.0,73,0.00,,,-99.99,,2013-03-17 11:22:00,
2013-03-17 07:32:00,36.0,28.0,-100.00,ESE,120,4.0,9.0,73,0.00,,,-99.99,,2013-03-17 11:32:00,
2013-03-17 07:42:00,36.0,28.0,-100.00,South,185,4.0,7.0,73,0.00,,,-99.99,,2013-03-17 11:42:00,
2013-03-17 07:52:00,35.0,28.0,-100.00,SE,135,4.0,9.0,72,0.00,,,-99.99,,2013-03-17 11:52:00,
2013-03-17 08:02:00,35.0,27.0,-100.00,South,180,2.0,11.0,71,0.00,,,-99.99,,2013-03-17 12:02:00,
2013-03-17 08:12:00,35.0,27.0,-100.00,SE,140,5.0,9.0,71,0.00,,,-99.99,,2013-03-17 12:12:00,
2013-03-17 08:22:00,35.0,27.0,-100.00,SSE,150,2.0,9.0,72,0.00,,,-99.99,,2013-03-17 12:22:00,
2013-03-17 08:33:00,35.0,27.0,-100.00,East,100,1.0,6.0,71,0.00,,,-99.99,,2013-03-17 12:33:00,
2013-03-17 08:43:00,35.0,27.0,-100.00,SE,135,3.0,7.0,71,0.00,,,-99.99,,2013-03-17 12:43:00,
2013-03-17 08:52:00,35.0,27.0,-100.00,SE,130,3.0,6.0,72,0.00,,,-99.99,,2013-03-17 12:52:00,
2013-03-17 09:02:00,35.0,27.0,-100.00,South,180,2.0,7.0,72,0.00,,,-99.99,,2013-03-17 13:02:00,
2013-03-17 09:12:00,35.0,27.0,-100.00,SSE,150,2.0,6.0,70,0.00,,,-99.99,,2013-03-17 13:12:00,
2013-03-17 09:22:00,36.0,27.0,-100.00,South,180,4.0,6.0,69,0.00,,,-99.99,,2013-03-17 13:22:00,
2013-03-17 09:32:00,36.0,26.0,-100.00,SE,135,4.0,9.0,68,0.00,,,-99.99,,2013-03-17 13:32:00,
2013-03-17 09:42:00,36.0,26.0,-100.00,East,90,4.0,9.0,68,0.00,,,-99.99,,2013-03-17 13:42:00,
2013-03-17 09:52:00,36.0,26.0,-100.00,SE,145,4.0,9.0,67,0.00,,,-99.99,,2013-03-17 13:52:00,
2013-03-17 10:02:00,36.0,26.0,-100.00,SE,125,4.0,9.0,67,0.00,,,-99.99,,2013-03-17 14:02:00,
2013-03-17 10:12:00,36.0,26.0,-100.00,South,175,1.0,6.0,67,0.00,,,-99.99,,2013-03-17 14:12:00,
2013-03-17 10:22:00,36.0,26.0,-100.00,SSE,155,5.0,7.0,66,0.00,,,-99.99,,2013-03-17 14:22:00,
2013-03-17 10:33:00,36.0,26.0,-100.00,South,170,2.0,8.0,67,0.00,,,-99.99,,2013-03-17 14:33:00,
2013-03-17 10:42:00,36.0,26.0,-100.00,SSE,155,6.0,12.0,67,0.00,,,-99.99,,2013-03-17 14:42:00,
2013-03-17 10:52:00,36.0,26.0,-100.00,South,190,4.0,8.0,67,0.00,,,-99.99,,2013-03-17 14:52:00,
2013-03-17 11:02:00,36.0,26.0,-100.00,South,175,6.0,10.0,67,0.55,,,-99.99,,2013-03-17 15:02:00,
2013-03-17 11:12:00,36.0,27.0,-100.00,SSE,160,4.0,11.0,70,0.00,,,-99.99,,2013-03-17 15:12:00,
2013-03-17 11:23:00,36.0,27.0,-100.00,South,170,6.0,12.0,69,0.00,,,-99.99,,2013-03-17 15:23:00,
2013-03-17 11:33:00,37.0,27.0,-100.00,SSE,165,7.0,11.0,68,0.00,,,-99.99,,2013-03-17 15:33:00,
2013-03-17 11:43:00,37.0,27.0,-100.00,South,175,4.0,12.0,68,0.00,,,-99.99,,2013-03-17 15:43:00,
2013-03-17 11:52:00,37.0,28.0,-100.00,ESE,120,6.0,12.0,69,0.00,,,-99.99,,2013-03-17 15:52:00,
2013-03-17 12:03:00,37.0,27.0,-100.00,SE,130,6.0,9.0,67,0.00,,,-99.99,,2013-03-17 16:03:00,
2013-03-17 12:12:00,37.0,28.0,-100.00,South,175,6.0,11.0,70,0.00,,,-99.99,,2013-03-17 16:12:00,
2013-03-17 12:23:00,36.0,28.0,-100.00,South,170,7.0,13.0,70,0.00,,,-99.99,,2013-03-17 16:23:00,
2013-03-17 12:33:00,36.0,28.0,-100.00,ESE,110,4.0,12.0,71,0.00,,,-99.99,,2013-03-17 16:33:00,
2013-03-17 12:42:00,36.0,28.0,-100.00,SSW,195,6.0,9.0,71,0.00,,,-99.99,,2013-03-17 16:42:00,
2013-03-17 12:52:00,36.0,28.0,-100.00,South,180,6.0,12.0,70,0.00,,,-99.99,,2013-03-17 16:52:00,
2013-03-17 13:02:00,37.0,28.0,-100.00,SE,130,5.0,9.0,70,0.00,,,-99.99,,2013-03-17 17:02:00,
2013-03-17 13:12:00,37.0,28.0,-100.00,SE,135,1.0,6.0,70,0.00,,,-99.99,,2013-03-17 17:12:00,
2013-03-17 13:22:00,37.0,28.0,-100.00,SE,135,6.0,11.0,69,0.00,,,-99.99,,2013-03-17 17:22:00,
2013-03-17 13:33:00,37.0,28.0,-100.00,South,180,6.0,11.0,71,0.55,,,-99.99,,2013-03-17 17:33:00,
2013-03-17 13:42:00,37.0,28.0,-100.00,SE,145,6.0,12.0,71,0.55,,,-99.99,,2013-03-17 17:42:00,
2013-03-17 13:52:00,37.0,30.0,-100.00,SE,130,4.0,9.0,75,1.10,,,-99.99,,2013-03-17 17:52:00,
2013-03-17 14:02:00,37.0,30.0,-100.00,SSE,160,2.0,7.0,76,0.00,,,-99.99,,2013-03-17 18:02:00,
2013-03-17 14:12:00,36.0,30.0,-100.00,SE,125,6.0,7.0,78,0.00,,,-99.99,,2013-03-17 18:12:00,
2013-03-17 14:22:00,36.0,31.0,-100.00,SE,145,4.0,9.0,80,1.69,,,-99.99,,2013-03-17 18:22:00,
2013-03-17 14:32:00,36.0,31.0,-100.00,SE,145,4.0,10.0,82,1.10,,,-99.99,,2013-03-17 18:32:00,
2013-03-17 14:42:00,36.0,31.0,-100.00,South,180,4.0,6.0,83,0.55,,,-99.99,,2013-03-17 18:42:00,
2013-03-17 14:52:00,36.0,32.0,-100.00,South,175,3.0,7.0,84,0.00,,,-99.99,,2013-03-17 18:52:00,
2013-03-17 15:02:00,36.0,32.0,-100.00,SSE,150,3.0,7.0,83,0.00,,,-99.99,,2013-03-17 19:02:00,
2013-03-17 15:12:00,36.0,31.0,-100.00,SSE,165,6.0,9.0,79,0.00,,,-99.99,,2013-03-17 19:12:00,
2013-03-17 15:22:00,37.0,31.0,-100.00,SE,145,2.0,7.0,80,0.00,,,-99.99,,2013-03-17 19:22:00,
2013-03-17 15:33:00,37.0,31.0,-100.00,SW,215,2.0,6.0,79,0.00,,,-99.99,,2013-03-17 19:33:00,
2013-03-17 15:42:00,37.0,31.0,-100.00,South,180,4.0,7.0,79,0.00,,,-99.99,,2013-03-17 19:42:00,
2013-03-17 15:53:00,37.0,31.0,-100.00,West,270,1.0,6.0,79,0.00,,,-99.99,,2013-03-17 19:53:00,
2013-03-17 16:02:00,37.0,31.0,-100.00,South,185,4.0,7.0,79,0.55,,,-99.99,,2013-03-17 20:02:00,
2013-03-17 16:12:00,37.0,31.0,-100.00,SE,145,3.0,7.0,79,0.55,,,-99.99,,2013-03-17 20:12:00,
2013-03-17 16:22:00,37.0,31.0,-100.00,South,175,1.0,5.0,81,0.00,,,-99.99,,2013-03-17 20:22:00,
2013-03-17 16:33:00,37.0,32.0,-100.00,SSW,195,2.0,6.0,82,0.55,,,-99.99,,2013-03-17 20:33:00,
2013-03-17 16:42:00,37.0,32.0,-100.00,SSE,165,4.0,6.0,82,1.10,,,-99.99,,2013-03-17 20:42:00,
2013-03-17 16:52:00,37.0,32.0,-100.00,South,185,3.0,7.0,83,0.55,,,-99.99,,2013-03-17 20:52:00,
2013-03-17 17:03:00,37.0,32.0,-100.00,SW,230,1.0,6.0,84,0.55,,,-99.99,,2013-03-17 21:03:00,
2013-03-17 17:12:00,36.0,32.0,-100.00,SSE,160,4.0,9.0,83,0.00,,,-99.99,,2013-03-17 21:12:00,
2013-03-17 17:22:00,37.0,32.0,-100.00,SSE,150,2.0,6.0,84,0.00,,,-99.99,,2013-03-17 21:22:00,
2013-03-17 17:33:00,37.0,32.0,-100.00,SSE,165,5.0,9.0,83,0.00,,,-99.99,,2013-03-17 21:33:00,
2013-03-17 17:43:00,37.0,32.0,-100.00,SSE,160,4.0,7.0,83,0.00,,,-99.99,,2013-03-17 21:43:00,
2013-03-17 17:52:00,37.0,32.0,-100.00,South,180,2.0,7.0,83,0.00,,,-99.99,,2013-03-17 21:52:00,
2013-03-17 18:03:00,37.0,32.0,-100.00,SSE,150,3.0,6.0,83,1.10,,,-99.99,,2013-03-17 22:03:00,
2013-03-17 18:12:00,37.0,31.0,-100.00,SSE,155,5.0,11.0,81,1.10,,,-99.99,,2013-03-17 22:12:00,
2013-03-17 18:23:00,37.0,32.0,-100.00,South,190,4.0,9.0,82,1.10,,,-99.99,,2013-03-17 22:23:00,
2013-03-17 18:33:00,37.0,32.0,-100.00,SSW,195,4.0,9.0,82,0.55,,,-99.99,,2013-03-17 22:33:00,
2013-03-17 18:42:00,37.0,32.0,-100.00,South,175,3.0,9.0,81,0.55,,,-99.99,,2013-03-17 22:42:00,
2013-03-17 18:52:00,37.0,32.0,-100.00,South,175,4.0,8.0,80,0.00,,,-99.99,,2013-03-17 22:52:00,
2013-03-17 19:03:00,37.0,32.0,-100.00,South,175,3.0,7.0,80,0.00,,,-99.99,,2013-03-17 23:03:00,
2013-03-17 19:12:00,37.0,31.0,-100.00,SSE,165,5.0,9.0,79,0.00,,,-99.99,,2013-03-17 23:12:00,
2013-03-17 19:22:00,37.0,31.0,-100.00,SE,140,3.0,6.0,79,0.00,,,-99.99,,2013-03-17 23:22:00,
2013-03-17 19:33:00,37.0,31.0,-100.00,SSW,195,4.0,9.0,77,0.00,,,-99.99,,2013-03-17 23:33:00,
2013-03-17 19:42:00,37.0,31.0,-100.00,SSE,165,4.0,7.0,76,0.00,,,-99.99,,2013-03-17 23:42:00,
2013-03-17 19:52:00,38.0,30.0,-100.00,South,170,3.0,6.0,75,0.00,,,-99.99,,2013-03-17 23:52:00,
2013-03-17 20:03:00,38.0,30.0,-100.00,SSE,165,3.0,7.0,74,0.00,,,-99.99,,2013-03-18 00:03:00,
2013-03-17 20:12:00,38.0,30.0,-100.00,SSE,150,2.0,6.0,74,0.00,,,-99.99,,2013-03-18 00:12:00,
2013-03-17 20:22:00,38.0,30.0,-100.00,South,170,3.0,7.0,72,0.00,,,-99.99,,2013-03-18 00:22:00,
2013-03-17 20:33:00,38.0,30.0,-100.00,South,175,3.0,9.0,72,0.00,,,-99.99,,2013-03-18 00:33:00,
2013-03-17 20:42:00,38.0,30.0,-100.00,SSE,165,3.0,9.0,72,0.00,,,-99.99,,2013-03-18 00:42:00,
2013-03-17 20:52:00,38.0,30.0,-100.00,SSE,155,1.0,4.0,72,0.55,,,-99.99,,2013-03-18 00:52:00,
2013-03-17 21:02:00,38.0,30.0,-100.00,South,175,3.0,7.0,73,0.00,,,-99.99,,2013-03-18 01:02:00,
2013-03-17 21:12:00,37.0,30.0,-100.00,SE,140,2.0,8.0,74,0.55,,,-99.99,,2013-03-18 01:12:00,
2013-03-17 21:22:00,37.0,31.0,-100.00,SSE,155,2.0,6.0,77,0.55,,,-99.99,,2013-03-18 01:22:00,
2013-03-17 21:32:00,36.0,30.0,-100.00,SSW,195,3.0,8.0,78,0.55,,,-99.99,,2013-03-18 01:32:00,
2013-03-17 21:42:00,36.0,31.0,-100.00,SSE,165,2.0,9.0,80,1.69,,,-99.99,,2013-03-18 01:42:00,
2013-03-17 21:52:00,36.0,31.0,-100.00,SSE,155,4.0,7.0,80,0.55,,,-99.99,,2013-03-18 01:52:00,
2013-03-17 22:02:00,36.0,31.0,-100.00,South,175,1.0,6.0,81,1.10,,,-99.99,,2013-03-18 02:02:00,
2013-03-17 22:12:00,36.0,31.0,-100.00,SSE,155,0.0,6.0,81,1.10,,,-99.99,,2013-03-18 02:12:00,
2013-03-17 22:22:00,36.0,31.0,-100.00,South,180,2.0,7.0,82,2.24,,,-99.99,,2013-03-18 02:22:00,
2013-03-17 22:32:00,36.0,31.0,-100.00,SSW,200,1.0,4.0,82,1.10,,,-99.99,,2013-03-18 02:32:00,
2013-03-17 22:42:00,35.0,31.0,-100.00,SSE,160,2.0,4.0,84,0.55,,,-99.99,,2013-03-18 02:42:00,
2013-03-17 22:52:00,35.0,31.0,-100.00,SSE,160,2.0,5.0,85,1.69,,,-99.99,,2013-03-18 02:52:00,
2013-03-17 23:03:00,35.0,32.0,-100.00,SE,140,1.0,3.0,85,1.10,,,-99.99,,2013-03-18 03:03:00,
2013-03-17 23:11:00,35.0,32.0,-100.00,SSE,155,1.0,3.0,86,1.10,,,-99.99,,2013-03-18 03:11:00,
2013-03-17 23:22:00,35.0,32.0,-100.00,SE,135,0.0,3.0,87,2.24,,,-99.99,,2013-03-18 03:22:00,
2013-03-17 23:33:00,35.0,32.0,-100.00,SSE,155,1.0,4.0,87,1.69,,,-99.99,,2013-03-18 03:33:00,
2013-03-17 23:42:00,35.0,32.0,-100.00,SE,130,4.0,7.0,87,1.10,,,-99.99,,2013-03-18 03:42:00,
2013-03-17 23:53:00,36.0,32.0,-100.00,NW,325,1.0,4.0,87,1.69,,,-99.99,,2013-03-18 03:53:00,